2023/02/12 00:00:00,42.4, 0.5
2023/02/12 00:10:00,42.4, 0.6
2023/02/12 00:20:00,42.3, 0.8
2023/02/12 00:30:00,42.4, 0.6
2023/02/12 00:40:00,42.3, 0.2
2023/02/12 00:50:00,42.3, 0.9
2023/02/12 01:00:00,42.4, 0.6
2023/02/12 01:10:00,42.3, 0.4
2023/02/12 01:20:00,42.3, 0.5
2023/02/12 01:30:00,42.3, 0.4
2023/02/12 01:40:00,42.3, 0.2
2023/02/12 01:50:00,42.4, 0.5
2023/02/12 02:00:00,42.3, 0.3
2023/02/12 02:10:00,42.2, 0.5
2023/02/12 02:20:00,42.1, 0.7
2023/02/12 02:30:00,42.2, 0.8
2023/02/12 02:40:00,42.2, 0.8
2023/02/12 02:50:00,42.1, 1.2
2023/02/12 03:00:00,42.2, 1.1
2023/02/12 03:10:00,42.2, 1.1
2023/02/12 03:20:00,42.1, 0.8
2023/02/12 03:30:00,42.1, 0.5
2023/02/12 03:40:00,42.1, 0.5
2023/02/12 03:50:00,42.1, 0.6
2023/02/12 04:00:00,42.1, 0.2
2023/02/12 04:10:00,42.1, 0.3
2023/02/12 04:20:00,42.1, 0.3
2023/02/12 04:30:00,42.1, 0.5
2023/02/12 04:40:00,42.1, 0.3
2023/02/12 04:50:00,42.1, 0.3
2023/02/12 05:00:00,42.1, 0.9
2023/02/12 05:10:00,42.1, 0.7
2023/02/12 05:20:00,42.1, 0.5
2023/02/12 05:30:00,42.1, 0.2
2023/02/12 05:40:00,42.1, 0.1
2023/02/12 05:50:00,42.2, 0.2
2023/02/12 06:00:00,42.2, 0.3
2023/02/12 06:10:00,42.2, 0.3
2023/02/12 06:20:00,42.2, 0.4
2023/02/12 06:30:00,42.1, 0.4
2023/02/12 06:40:00,42.1, 0.3
2023/02/12 06:50:00,42.1, 0.5
2023/02/12 07:00:00,42.1, 0.1
2023/02/12 07:10:00,42.1, 0.4
2023/02/12 07:20:00,42.3, 0.3
2023/02/12 07:30:00,42.3, 0.5
2023/02/12 07:40:00,42.3, 0.6
2023/02/12 07:50:00,42.4, 0.9
2023/02/12 08:00:00,42.2, 2.0
2023/02/12 08:10:00,42.2, 1.9
2023/02/12 08:20:00,42.2, 2.9
2023/02/12 08:30:00,42.3, 3.0
2023/02/12 08:40:00,42.4, 3.5
2023/02/12 08:50:00,42.6, 4.6
2023/02/12 09:00:00,42.5, 5.6
2023/02/12 09:10:00,42.3, 7.2
2023/02/12 09:20:00,42.4, 9.4
2023/02/12 09:30:00,42.5,10.0
2023/02/12 09:40:00,42.6, 9.7
2023/02/12 09:50:00,42.8,10.3
2023/02/12 10:00:00,43.0, 9.7
2023/02/12 10:10:00,43.1,11.0
2023/02/12 10:20:00,43.2,13.8
2023/02/12 10:30:00,43.1,13.9
2023/02/12 10:40:00,43.2,14.2
2023/02/12 10:50:00,43.0,15.2
2023/02/12 11:00:00,43.0,15.4
2023/02/12 11:10:00,42.8,16.0
2023/02/12 11:20:00,42.8,16.6
2023/02/12 11:30:00,42.5,15.2
2023/02/12 11:40:00,42.7,15.7
2023/02/12 11:50:00,42.3,15.1
2023/02/12 12:00:00,42.3,14.7
2023/02/12 12:10:00,42.2,15.1
2023/02/12 12:20:00,42.3,14.6
2023/02/12 12:30:00,42.3,13.4
2023/02/12 12:40:00,41.4,13.6
2023/02/12 12:50:00,41.7,14.1
2023/02/12 13:00:00,40.9,11.5
2023/02/12 13:10:00,40.6,12.3
2023/02/12 13:20:00,40.7,13.7
2023/02/12 13:30:00,40.9,13.4
2023/02/12 13:40:00,41.2,12.5
2023/02/12 13:50:00,40.4,11.1
2023/02/12 14:00:00,40.7,12.6
2023/02/12 14:10:00,41.6,15.1
2023/02/12 14:20:00,41.4,15.3
2023/02/12 14:30:00,40.8,15.3
2023/02/12 14:40:00,40.2,14.7
2023/02/12 14:50:00,40.3,15.1
2023/02/12 15:00:00,40.0,15.9
2023/02/12 15:10:00,40.1,11.5
2023/02/12 15:20:00,39.4, 8.7
2023/02/12 15:30:00,39.2,11.0
2023/02/12 15:40:00,39.1, 7.6
2023/02/12 15:50:00,39.2, 5.9
2023/02/12 16:00:00,39.1, 5.5
2023/02/12 16:10:00,38.9, 5.1
2023/02/12 16:20:00,39.0, 4.9
2023/02/12 16:30:00,38.8, 4.4
2023/02/12 16:40:00,38.7, 4.3
2023/02/12 16:50:00,38.5, 3.9
2023/02/12 17:00:00,38.3, 3.7
2023/02/12 17:10:00,38.8, 3.5
2023/02/12 17:20:00,38.3, 3.5
2023/02/12 17:30:00,38.1, 2.9
2023/02/12 17:40:00,38.4, 2.7
2023/02/12 17:50:00,37.9, 2.7
2023/02/12 18:00:00,38.2, 2.7
2023/02/12 18:10:00,38.5, 2.5
2023/02/12 18:20:00,38.5, 2.2
2023/02/12 18:30:00,38.3, 2.7
2023/02/12 18:40:00,38.1, 2.4
2023/02/12 18:50:00,38.0, 2.4
2023/02/12 19:00:00,37.9, 2.4
2023/02/12 19:10:00,37.8, 2.1
2023/02/12 19:20:00,37.8, 2.1
2023/02/12 19:30:00,37.5, 2.0
2023/02/12 19:40:00,37.4, 2.0
2023/02/12 19:50:00,37.2, 2.2
2023/02/12 20:00:00,37.0, 2.1
2023/02/12 20:10:00,36.9, 2.0
2023/02/12 20:20:00,36.8, 2.0
2023/02/12 20:30:00,36.8, 2.0
2023/02/12 20:40:00,36.8, 2.2
2023/02/12 20:50:00,36.8, 2.0
2023/02/12 21:00:00,36.9, 2.2
2023/02/12 21:10:00,36.9, 1.9
2023/02/12 21:20:00,36.8, 2.3
2023/02/12 21:30:00,36.9, 1.9
2023/02/12 21:40:00,36.9, 2.1
2023/02/12 21:50:00,36.8, 1.9
2023/02/12 22:00:00,37.0, 2.0
2023/02/12 22:10:00,37.1, 2.3
2023/02/12 22:20:00,37.1, 2.1
2023/02/12 22:30:00,37.2, 2.0
2023/02/12 22:40:00,37.4, 1.9
2023/02/12 22:50:00,37.2, 1.8
2023/02/12 23:00:00,37.2, 2.3
2023/02/12 23:10:00,37.3, 2.2
2023/02/12 23:20:00,37.2, 2.1
2023/02/12 23:30:00,37.1, 2.3
2023/02/12 23:40:00,37.2, 2.1
2023/02/12 23:50:00,37.7, 2.0
